date,time,SUV Intensity [MED/Hr],UV Index,Daily total [MED],Since Last [MED]
21/01/2022,00:03:59,-0.000,0.0,0.0,0.0
21/01/2022,00:05:44,-0.001,0.0,0.0,0.0
21/01/2022,00:06:43,0.001,0.0,0.0,0.0
21/01/2022,00:07:43,-0.001,0.0,0.0,0.0
21/01/2022,00:08:42,0.001,0.0,0.0,0.0
21/01/2022,00:09:45,-0.000,0.0,0.0,0.0
21/01/2022,00:10:43,-0.000,0.0,0.0,0.0
21/01/2022,00:11:43,0.000,0.0,0.0,0.0
21/01/2022,00:12:43,0.000,0.0,0.0,0.0
21/01/2022,00:13:43,0.001,0.0,0.0,0.0
21/01/2022,00:14:42,0.000,0.0,0.0,0.0
21/01/2022,00:15:51,-0.000,0.0,0.0,0.0
21/01/2022,00:16:43,0.001,0.0,0.0,0.0
21/01/2022,00:17:43,0.000,0.0,0.0,0.0
21/01/2022,00:18:51,0.000,0.0,0.0,0.0
21/01/2022,00:19:42,0.001,0.0,0.0,0.0
21/01/2022,00:20:43,0.000,0.0,0.0,0.0
21/01/2022,00:21:42,0.000,0.0,0.0,0.0
21/01/2022,00:22:44,0.000,0.0,0.0,0.0
21/01/2022,00:23:42,0.000,0.0,0.0,0.0
21/01/2022,00:24:43,0.000,0.0,0.0,0.0
21/01/2022,00:25:42,-0.001,0.0,0.0,0.0
21/01/2022,00:26:43,0.000,0.0,0.0,0.0
21/01/2022,00:27:43,-0.001,0.0,0.0,0.0
21/01/2022,00:28:44,0.000,0.0,0.0,0.0
21/01/2022,00:29:43,0.001,0.0,0.0,0.0
21/01/2022,00:30:43,0.000,0.0,0.0,0.0
21/01/2022,00:31:43,-0.001,0.0,0.0,0.0
21/01/2022,00:32:43,0.000,0.0,0.0,0.0
21/01/2022,00:33:43,0.000,0.0,0.0,0.0
21/01/2022,00:34:43,-0.000,0.0,0.0,0.0
21/01/2022,00:35:43,-0.000,0.0,0.0,0.0
21/01/2022,00:36:51,0.001,0.0,0.0,0.0
21/01/2022,00:37:43,0.000,0.0,0.0,0.0
21/01/2022,00:38:43,0.000,0.0,0.0,0.0
21/01/2022,00:39:43,0.000,0.0,0.0,0.0
21/01/2022,00:40:43,0.000,0.0,0.0,0.0
21/01/2022,00:41:43,0.000,0.0,0.0,0.0
21/01/2022,00:42:43,0.000,0.0,0.0,0.0
21/01/2022,00:43:43,0.000,0.0,0.0,0.0
21/01/2022,00:44:43,0.000,0.0,0.0,0.0
21/01/2022,00:45:43,0.001,0.0,0.0,0.0
21/01/2022,00:46:43,-0.000,0.0,0.0,0.0
21/01/2022,00:47:43,0.000,0.0,0.0,0.0
21/01/2022,00:48:43,0.001,0.0,0.0,0.0
21/01/2022,00:49:51,0.001,0.0,0.0,0.0
21/01/2022,00:50:42,-0.000,0.0,0.0,0.0
21/01/2022,00:51:43,0.000,0.0,0.0,0.0
21/01/2022,00:52:42,0.000,0.0,0.0,0.0
21/01/2022,00:53:43,0.000,0.0,0.0,0.0
21/01/2022,00:54:43,0.000,0.0,0.0,0.0
21/01/2022,00:55:43,0.001,0.0,0.0,0.0
21/01/2022,00:56:43,0.001,0.0,0.0,0.0
21/01/2022,00:57:43,-0.000,0.0,0.0,0.0
21/01/2022,00:58:43,0.000,0.0,0.0,0.0
21/01/2022,00:59:52,-0.000,0.0,0.0,0.0
21/01/2022,01:00:43,0.000,0.0,0.0,0.0
21/01/2022,01:01:43,0.001,0.0,0.0,0.0
21/01/2022,01:02:43,0.000,0.0,0.0,0.0
21/01/2022,01:03:43,0.001,0.0,0.0,0.0
21/01/2022,01:04:43,0.000,0.0,0.0,0.0
21/01/2022,01:05:43,0.000,0.0,0.0,0.0
21/01/2022,01:06:43,0.000,0.0,0.0,0.0
21/01/2022,01:07:44,-0.000,0.0,0.0,0.0
21/01/2022,01:08:43,0.000,0.0,0.0,0.0
21/01/2022,01:09:43,-0.001,0.0,0.0,0.0
21/01/2022,01:10:43,-0.001,0.0,0.0,0.0
21/01/2022,01:11:43,0.000,0.0,0.0,0.0
21/01/2022,01:12:34,0.000,0.0,0.0,0.0
21/01/2022,01:13:44,0.000,0.0,0.0,0.0
21/01/2022,01:14:43,0.000,0.0,0.0,0.0
21/01/2022,01:15:43,0.000,0.0,0.0,0.0
21/01/2022,01:16:43,-0.001,0.0,0.0,0.0
21/01/2022,01:17:42,0.000,0.0,0.0,0.0
21/01/2022,01:18:44,0.000,0.0,0.0,0.0
21/01/2022,01:19:43,-0.000,0.0,0.0,0.0
21/01/2022,01:20:43,0.000,0.0,0.0,0.0
21/01/2022,01:21:43,0.001,0.0,0.0,0.0
21/01/2022,01:22:45,0.000,0.0,0.0,0.0
21/01/2022,01:23:52,0.001,0.0,0.0,0.0
21/01/2022,01:24:41,0.000,0.0,0.0,0.0
21/01/2022,01:25:43,0.000,0.0,0.0,0.0
21/01/2022,01:26:42,0.000,0.0,0.0,0.0
21/01/2022,01:27:43,0.001,0.0,0.0,0.0
21/01/2022,01:28:43,0.000,0.0,0.0,0.0
21/01/2022,01:29:43,0.001,0.0,0.0,0.0
21/01/2022,01:30:42,0.001,0.0,0.0,0.0
21/01/2022,01:31:51,0.000,0.0,0.0,0.0
21/01/2022,01:32:42,0.001,0.0,0.0,0.0
21/01/2022,01:33:44,-0.001,0.0,0.0,0.0
21/01/2022,01:34:43,0.000,0.0,0.0,0.0
21/01/2022,01:35:43,0.000,0.0,0.0,0.0
21/01/2022,01:36:51,0.000,0.0,0.0,0.0
21/01/2022,01:37:43,0.000,0.0,0.0,0.0
21/01/2022,01:38:51,-0.000,0.0,0.0,0.0
21/01/2022,01:39:43,0.001,0.0,0.0,0.0
21/01/2022,01:40:43,0.000,0.0,0.0,0.0
21/01/2022,01:41:43,0.001,0.0,0.0,0.0
21/01/2022,01:42:42,0.000,0.0,0.0,0.0
21/01/2022,01:43:43,0.000,0.0,0.0,0.0
21/01/2022,01:44:43,0.000,0.0,0.0,0.0
21/01/2022,01:45:43,0.000,0.0,0.0,0.0
21/01/2022,01:46:43,-0.000,0.0,0.0,0.0
21/01/2022,01:47:42,0.000,0.0,0.0,0.0
21/01/2022,01:48:52,0.000,0.0,0.0,0.0
21/01/2022,01:49:41,0.001,0.0,0.0,0.0
21/01/2022,01:50:43,0.000,0.0,0.0,0.0
21/01/2022,01:51:52,0.002,0.0,0.0,0.0
21/01/2022,01:52:42,-0.000,0.0,0.0,0.0
21/01/2022,01:53:43,-0.000,0.0,0.0,0.0
21/01/2022,01:54:42,0.000,0.0,0.0,0.0
21/01/2022,01:55:42,0.000,0.0,0.0,0.0
21/01/2022,01:56:43,0.001,0.0,0.0,0.0
21/01/2022,01:57:43,0.001,0.0,0.0,0.0
21/01/2022,01:58:43,0.000,0.0,0.0,0.0
21/01/2022,01:59:42,0.000,0.0,0.0,0.0
21/01/2022,02:00:43,0.000,0.0,0.0,0.0
21/01/2022,02:01:51,0.000,0.0,0.0,0.0
21/01/2022,02:02:42,0.000,0.0,0.0,0.0
21/01/2022,02:03:43,0.000,0.0,0.0,0.0
21/01/2022,02:04:43,0.000,0.0,0.0,0.0
21/01/2022,02:05:43,0.000,0.0,0.0,0.0
21/01/2022,02:06:43,0.000,0.0,0.0,0.0
21/01/2022,02:07:43,-0.001,0.0,0.0,0.0
21/01/2022,02:08:44,0.001,0.0,0.0,0.0
21/01/2022,02:09:51,0.001,0.0,0.0,0.0
21/01/2022,02:10:43,0.001,0.0,0.0,0.0
21/01/2022,02:11:43,0.000,0.0,0.0,0.0
21/01/2022,02:12:52,-0.001,0.0,0.0,0.0
21/01/2022,02:13:41,0.001,0.0,0.0,0.0
21/01/2022,02:14:43,0.000,0.0,0.0,0.0
21/01/2022,02:15:43,0.000,0.0,0.0,0.0
21/01/2022,02:16:43,-0.001,0.0,0.0,0.0
21/01/2022,02:17:43,-0.001,0.0,0.0,0.0
21/01/2022,02:18:43,0.000,0.0,0.0,0.0
21/01/2022,02:20:04,-0.000,0.0,0.0,0.0
21/01/2022,02:21:44,-0.000,0.0,0.0,0.0
21/01/2022,02:22:43,-0.001,0.0,0.0,0.0
21/01/2022,02:23:43,0.001,0.0,0.0,0.0
21/01/2022,02:24:43,0.001,0.0,0.0,0.0
21/01/2022,02:25:44,0.000,0.0,0.0,0.0
21/01/2022,02:26:43,0.001,0.0,0.0,0.0
21/01/2022,02:27:43,0.000,0.0,0.0,0.0
21/01/2022,02:28:43,0.001,0.0,0.0,0.0
21/01/2022,02:29:43,0.002,0.0,0.0,0.0
21/01/2022,02:30:43,0.001,0.0,0.0,0.0
21/01/2022,02:31:43,0.000,0.0,0.0,0.0
21/01/2022,02:32:43,-0.000,0.0,0.0,0.0
21/01/2022,02:33:51,-0.001,0.0,0.0,0.0
21/01/2022,02:34:43,0.000,0.0,0.0,0.0
21/01/2022,02:35:45,0.000,0.0,0.0,0.0
21/01/2022,02:36:43,0.000,0.0,0.0,0.0
21/01/2022,02:37:43,0.001,0.0,0.0,0.0
21/01/2022,02:38:43,0.000,0.0,0.0,0.0
21/01/2022,02:39:43,0.001,0.0,0.0,0.0
21/01/2022,02:40:42,0.000,0.0,0.0,0.0
21/01/2022,02:41:43,-0.001,0.0,0.0,0.0
21/01/2022,02:42:43,0.001,0.0,0.0,0.0
21/01/2022,02:43:51,0.001,0.0,0.0,0.0
21/01/2022,02:44:43,0.001,0.0,0.0,0.0
21/01/2022,02:45:43,0.001,0.0,0.0,0.0
21/01/2022,02:46:51,0.001,0.0,0.0,0.0
21/01/2022,02:47:43,0.001,0.0,0.0,0.0
21/01/2022,02:48:43,0.001,0.0,0.0,0.0
21/01/2022,02:49:43,0.001,0.0,0.0,0.0
21/01/2022,02:50:43,0.000,0.0,0.0,0.0
21/01/2022,02:51:43,0.001,0.0,0.0,0.0
21/01/2022,02:53:44,0.001,0.0,0.0,0.0
21/01/2022,02:54:43,0.000,0.0,0.0,0.0
21/01/2022,02:55:43,0.001,0.0,0.0,0.0
21/01/2022,02:56:43,0.000,0.0,0.0,0.0
21/01/2022,02:57:43,0.000,0.0,0.0,0.0
21/01/2022,02:58:43,0.000,0.0,0.0,0.0
21/01/2022,02:59:43,0.000,0.0,0.0,0.0
21/01/2022,03:00:43,-0.000,0.0,0.0,0.0
21/01/2022,03:01:51,0.001,0.0,0.0,0.0
21/01/2022,03:02:44,0.002,0.0,0.0,0.0
21/01/2022,03:03:43,0.000,0.0,0.0,0.0
21/01/2022,03:04:51,0.000,0.0,0.0,0.0
21/01/2022,03:05:43,0.001,0.0,0.0,0.0
21/01/2022,03:06:43,0.000,0.0,0.0,0.0
21/01/2022,03:07:43,-0.001,0.0,0.0,0.0
21/01/2022,03:08:51,0.001,0.0,0.0,0.0
21/01/2022,03:09:43,0.001,0.0,0.0,0.0
21/01/2022,03:10:43,0.002,0.0,0.0,0.0
21/01/2022,03:11:44,0.002,0.0,0.0,0.0
21/01/2022,03:12:43,0.001,0.0,0.0,0.0
21/01/2022,03:13:43,0.001,0.0,0.0,0.0
21/01/2022,03:14:43,0.000,0.0,0.0,0.0
21/01/2022,03:15:43,0.001,0.0,0.0,0.0
21/01/2022,03:16:43,0.001,0.0,0.0,0.0
21/01/2022,03:17:43,0.001,0.0,0.0,0.0
21/01/2022,03:18:51,0.001,0.0,0.0,0.0
21/01/2022,03:19:43,0.001,0.0,0.0,0.0
21/01/2022,03:20:43,-0.001,0.0,0.0,0.0
21/01/2022,03:21:44,0.001,0.0,0.0,0.0
21/01/2022,03:22:43,0.001,0.0,0.0,0.0
21/01/2022,03:23:43,0.001,0.0,0.0,0.0
21/01/2022,03:24:43,0.001,0.0,0.0,0.0
21/01/2022,03:25:43,0.001,0.0,0.0,0.0
21/01/2022,03:26:43,-0.001,0.0,0.0,0.0
21/01/2022,03:27:43,0.000,0.0,0.0,0.0
21/01/2022,03:28:52,0.001,0.0,0.0,0.0
21/01/2022,03:29:51,0.001,0.0,0.0,0.0
21/01/2022,03:31:44,0.000,0.0,0.0,0.0
21/01/2022,03:32:44,0.001,0.0,0.0,0.0
21/01/2022,03:33:43,0.001,0.0,0.0,0.0
21/01/2022,03:34:43,-0.000,0.0,0.0,0.0
21/01/2022,03:35:45,0.001,0.0,0.0,0.0
21/01/2022,03:36:43,0.001,0.0,0.0,0.0
21/01/2022,03:37:43,0.001,0.0,0.0,0.0
21/01/2022,03:38:43,0.001,0.0,0.0,0.0
21/01/2022,03:39:51,0.001,0.0,0.0,0.0
21/01/2022,03:40:44,0.002,0.0,0.0,0.0
21/01/2022,03:41:44,0.001,0.0,0.0,0.0
21/01/2022,03:42:43,-0.000,0.0,0.0,0.0
21/01/2022,03:43:43,0.001,0.0,0.0,0.0
21/01/2022,03:44:43,0.001,0.0,0.0,0.0
21/01/2022,03:45:44,-0.000,0.0,0.0,0.0
21/01/2022,03:46:43,0.001,0.0,0.0,0.0
21/01/2022,03:47:43,0.001,0.0,0.0,0.0
21/01/2022,03:48:43,0.001,0.0,0.0,0.0
21/01/2022,03:50:08,0.001,0.0,0.0,0.0
21/01/2022,03:51:44,0.001,0.0,0.0,0.0
21/01/2022,03:52:44,0.001,0.0,0.0,0.0
21/01/2022,03:53:43,0.000,0.0,0.0,0.0
21/01/2022,03:54:43,0.001,0.0,0.0,0.0
21/01/2022,03:55:43,0.000,0.0,0.0,0.0
21/01/2022,03:56:43,0.001,0.0,0.0,0.0
21/01/2022,03:57:43,0.000,0.0,0.0,0.0
21/01/2022,03:58:43,0.001,0.0,0.0,0.0
21/01/2022,03:59:44,0.000,0.0,0.0,0.0
21/01/2022,04:00:43,0.001,0.0,0.0,0.0
21/01/2022,04:01:43,-0.000,0.0,0.0,0.0
21/01/2022,04:02:43,0.001,0.0,0.0,0.0
21/01/2022,04:04:44,0.001,0.0,0.0,0.0
21/01/2022,04:05:44,0.001,0.0,0.0,0.0
21/01/2022,04:06:43,0.001,0.0,0.0,0.0
21/01/2022,04:07:44,0.000,0.0,0.0,0.0
21/01/2022,04:08:43,0.000,0.0,0.0,0.0
21/01/2022,04:09:44,0.001,0.0,0.0,0.0
21/01/2022,04:10:52,0.000,0.0,0.0,0.0
21/01/2022,04:11:52,0.000,0.0,0.0,0.0
21/01/2022,04:12:43,-0.000,0.0,0.0,0.0
21/01/2022,04:13:44,0.001,0.0,0.0,0.0
21/01/2022,04:14:44,0.000,0.0,0.0,0.0
21/01/2022,04:15:44,0.002,0.0,0.0,0.0
21/01/2022,04:16:43,0.001,0.0,0.0,0.0
21/01/2022,04:17:45,0.001,0.0,0.0,0.0
21/01/2022,04:18:43,0.001,0.0,0.0,0.0
21/01/2022,04:19:43,0.001,0.0,0.0,0.0
21/01/2022,04:20:43,0.000,0.0,0.0,0.0
21/01/2022,04:21:51,0.001,0.0,0.0,0.0
21/01/2022,04:22:43,0.001,0.0,0.0,0.0
21/01/2022,04:23:44,0.002,0.0,0.0,0.0
21/01/2022,04:24:43,0.000,0.0,0.0,0.0
21/01/2022,04:25:44,0.001,0.0,0.0,0.0
21/01/2022,04:26:43,0.001,0.0,0.0,0.0
21/01/2022,04:27:43,0.000,0.0,0.0,0.0
21/01/2022,04:28:43,0.001,0.0,0.0,0.0
21/01/2022,04:29:43,-0.000,0.0,0.0,0.0
21/01/2022,04:30:43,0.002,0.0,0.0,0.0
21/01/2022,04:31:52,-0.000,0.0,0.0,0.0
21/01/2022,04:32:51,0.001,0.0,0.0,0.0
21/01/2022,04:33:43,0.001,0.0,0.0,0.0
21/01/2022,04:34:43,0.000,0.0,0.0,0.0
21/01/2022,04:35:37,0.001,0.0,0.0,0.0
21/01/2022,04:36:44,0.001,0.0,0.0,0.0
21/01/2022,04:37:44,0.000,0.0,0.0,0.0
21/01/2022,04:38:43,0.002,0.0,0.0,0.0
21/01/2022,04:39:52,0.000,0.0,0.0,0.0
21/01/2022,04:40:43,0.001,0.0,0.0,0.0
21/01/2022,04:41:44,-0.000,0.0,0.0,0.0
21/01/2022,04:42:43,0.002,0.0,0.0,0.0
21/01/2022,04:43:44,0.000,0.0,0.0,0.0
21/01/2022,04:44:43,0.000,0.0,0.0,0.0
21/01/2022,04:45:43,0.002,0.0,0.0,0.0
21/01/2022,04:46:44,-0.000,0.0,0.0,0.0
21/01/2022,04:47:44,0.001,0.0,0.0,0.0
21/01/2022,04:48:43,0.001,0.0,0.0,0.0
21/01/2022,04:49:52,0.001,0.0,0.0,0.0
21/01/2022,04:50:42,0.001,0.0,0.0,0.0
21/01/2022,04:51:43,0.001,0.0,0.0,0.0
21/01/2022,04:52:43,0.001,0.0,0.0,0.0
21/01/2022,04:53:44,0.001,0.0,0.0,0.0
21/01/2022,04:54:43,-0.000,0.0,0.0,0.0
21/01/2022,04:55:44,0.001,0.0,0.0,0.0
21/01/2022,04:56:43,0.001,0.0,0.0,0.0
21/01/2022,04:57:43,0.001,0.0,0.0,0.0
21/01/2022,04:58:43,0.000,0.0,0.0,0.0
21/01/2022,04:59:43,0.001,0.0,0.0,0.0
21/01/2022,05:00:43,0.001,0.0,0.0,0.0
21/01/2022,05:01:43,0.000,0.0,0.0,0.0
21/01/2022,05:02:43,0.000,0.0,0.0,0.0
21/01/2022,05:03:51,0.001,0.0,0.0,0.0
21/01/2022,05:04:44,0.001,0.0,0.0,0.0
21/01/2022,05:05:43,-0.000,0.0,0.0,0.0
21/01/2022,05:07:44,-0.000,0.0,0.0,0.0
21/01/2022,05:08:44,0.001,0.0,0.0,0.0
21/01/2022,05:09:44,0.000,0.0,0.0,0.0
21/01/2022,05:10:43,0.000,0.0,0.0,0.0
21/01/2022,05:11:43,0.001,0.0,0.0,0.0
21/01/2022,05:12:43,0.000,0.0,0.0,0.0
21/01/2022,05:13:52,0.000,0.0,0.0,0.0
21/01/2022,05:14:50,0.001,0.0,0.0,0.0
21/01/2022,05:15:43,0.001,0.0,0.0,0.0
21/01/2022,05:16:43,0.001,0.0,0.0,0.0
21/01/2022,05:17:43,0.001,0.0,0.0,0.0
21/01/2022,05:18:43,0.001,0.0,0.0,0.0
21/01/2022,05:19:43,0.000,0.0,0.0,0.0
21/01/2022,05:20:44,0.001,0.0,0.0,0.0
21/01/2022,05:21:52,0.001,0.0,0.0,0.0
21/01/2022,05:22:44,0.001,0.0,0.0,0.0
21/01/2022,05:24:00,0.001,0.0,0.0,0.0
21/01/2022,05:25:45,0.000,0.0,0.0,0.0
21/01/2022,05:26:43,0.001,0.0,0.0,0.0
21/01/2022,05:27:43,0.001,0.0,0.0,0.0
21/01/2022,05:28:51,0.001,0.0,0.0,0.0
21/01/2022,05:29:43,0.001,0.0,0.0,0.0
21/01/2022,05:30:44,0.001,0.0,0.0,0.0
21/01/2022,05:31:43,-0.000,0.0,0.0,0.0
21/01/2022,05:32:43,0.001,0.0,0.0,0.0
21/01/2022,05:33:44,0.001,0.0,0.0,0.0
21/01/2022,05:34:44,-0.000,0.0,0.0,0.0
21/01/2022,05:35:44,0.001,0.0,0.0,0.0
21/01/2022,05:36:43,0.001,0.0,0.0,0.0
21/01/2022,05:37:43,0.002,0.0,0.0,0.0
21/01/2022,05:38:51,0.001,0.0,0.0,0.0
21/01/2022,05:39:43,0.001,0.0,0.0,0.0
21/01/2022,05:40:43,0.000,0.0,0.0,0.0
21/01/2022,05:41:43,0.002,0.0,0.0,0.0
21/01/2022,05:42:43,0.001,0.0,0.0,0.0
21/01/2022,05:43:44,0.001,0.0,0.0,0.0
21/01/2022,05:44:43,0.001,0.0,0.0,0.0
21/01/2022,05:45:53,0.001,0.0,0.0,0.0
21/01/2022,05:46:43,0.001,0.0,0.0,0.0
21/01/2022,05:47:43,0.001,0.0,0.0,0.0
21/01/2022,05:48:43,0.001,0.0,0.0,0.0
21/01/2022,05:49:43,0.001,0.0,0.0,0.0
21/01/2022,05:50:43,0.001,0.0,0.0,0.0
21/01/2022,05:51:43,0.001,0.0,0.0,0.0
21/01/2022,05:52:43,0.001,0.0,0.0,0.0
21/01/2022,05:53:43,0.001,0.0,0.0,0.0
21/01/2022,05:54:44,0.001,0.0,0.0,0.0
21/01/2022,05:55:43,0.002,0.0,0.0,0.0
21/01/2022,05:56:43,0.001,0.0,0.0,0.0
21/01/2022,05:57:44,0.001,0.0,0.0,0.0
21/01/2022,05:58:43,0.001,0.0,0.0,0.0
21/01/2022,05:59:52,0.001,0.0,0.0,0.0
21/01/2022,06:00:44,0.001,0.0,0.0,0.0
21/01/2022,06:01:43,0.000,0.0,0.0,0.0
21/01/2022,06:02:52,0.002,0.0,0.0,0.0
21/01/2022,06:03:44,0.001,0.0,0.0,0.0
21/01/2022,06:04:44,0.001,0.0,0.0,0.0
21/01/2022,06:05:44,0.001,0.0,0.0,0.0
21/01/2022,06:06:43,0.001,0.0,0.0,0.0
21/01/2022,06:07:43,0.001,0.0,0.0,0.0
21/01/2022,06:08:43,0.001,0.0,0.0,0.0
21/01/2022,06:09:43,0.001,0.0,0.0,0.0
21/01/2022,06:10:44,0.001,0.0,0.0,0.0
21/01/2022,06:11:43,0.001,0.0,0.0,0.0
21/01/2022,06:12:44,0.002,0.0,0.0,0.0
21/01/2022,06:13:44,-0.000,0.0,0.0,0.0
21/01/2022,06:14:44,0.001,0.0,0.0,0.0
21/01/2022,06:15:44,0.001,0.0,0.0,0.0
21/01/2022,06:16:43,0.001,0.0,0.0,0.0
21/01/2022,06:17:52,0.000,0.0,0.0,0.0
21/01/2022,06:18:42,0.001,0.0,0.0,0.0
21/01/2022,06:19:44,0.001,0.0,0.0,0.0
21/01/2022,06:20:44,0.001,0.0,0.0,0.0
21/01/2022,06:21:43,0.001,0.0,0.0,0.0
21/01/2022,06:22:43,0.001,0.0,0.0,0.0
21/01/2022,06:23:52,0.001,0.0,0.0,0.0
21/01/2022,06:24:43,0.001,0.0,0.0,0.0
21/01/2022,06:25:44,0.002,0.0,0.0,0.0
21/01/2022,06:26:44,0.001,0.0,0.0,0.0
21/01/2022,06:27:43,0.001,0.0,0.0,0.0
21/01/2022,06:28:43,0.001,0.0,0.0,0.0
21/01/2022,06:29:43,0.001,0.0,0.0,0.0
21/01/2022,06:30:43,0.002,0.0,0.0,0.0
21/01/2022,06:31:43,0.002,0.0,0.0,0.0
21/01/2022,06:32:43,0.002,0.0,0.0,0.0
21/01/2022,06:33:43,0.002,0.0,0.0,0.0
21/01/2022,06:34:43,0.000,0.0,0.0,0.0
21/01/2022,06:35:44,0.000,0.0,0.0,0.0
21/01/2022,06:36:44,0.001,0.0,0.0,0.0
21/01/2022,06:37:43,0.001,0.0,0.0,0.0
21/01/2022,06:38:44,0.002,0.0,0.0,0.0
21/01/2022,06:39:44,0.001,0.0,0.0,0.0
21/01/2022,06:40:43,0.001,0.0,0.0,0.0
21/01/2022,06:41:52,0.000,0.0,0.0,0.0
21/01/2022,06:42:43,0.001,0.0,0.0,0.0
21/01/2022,06:43:43,0.001,0.0,0.0,0.0
21/01/2022,06:44:44,0.001,0.0,0.0,0.0
21/01/2022,06:45:44,0.000,0.0,0.0,0.0
21/01/2022,06:46:43,0.001,0.0,0.0,0.0
21/01/2022,06:47:44,0.001,0.0,0.0,0.0
21/01/2022,06:48:44,0.001,0.0,0.0,0.0
21/01/2022,06:49:44,0.001,0.0,0.0,0.0
21/01/2022,06:50:44,0.001,0.0,0.0,0.0
21/01/2022,06:51:43,0.001,0.0,0.0,0.0
21/01/2022,06:52:43,0.001,0.0,0.0,0.0
21/01/2022,06:53:43,0.001,0.0,0.0,0.0
21/01/2022,06:54:43,0.002,0.0,0.0,0.0
21/01/2022,06:55:43,0.001,0.0,0.0,0.0
21/01/2022,06:56:44,0.001,0.0,0.0,0.0
21/01/2022,06:57:43,0.001,0.0,0.0,0.0
21/01/2022,06:58:43,0.000,0.0,0.0,0.0
21/01/2022,06:59:51,0.001,0.0,0.0,0.0
21/01/2022,07:00:43,0.001,0.0,0.0,0.0
21/01/2022,07:01:44,0.001,0.0,0.0,0.0
21/01/2022,07:02:44,0.001,0.0,0.0,0.0
21/01/2022,07:03:43,0.001,0.0,0.0,0.0
21/01/2022,07:04:44,0.001,0.0,0.0,0.0
21/01/2022,07:05:44,0.002,0.0,0.0,0.0
21/01/2022,07:06:43,0.001,0.0,0.0,0.0
21/01/2022,07:07:44,0.001,0.0,0.0,0.0
21/01/2022,07:08:44,0.001,0.0,0.0,0.0
21/01/2022,07:09:43,0.001,0.0,0.0,0.0
21/01/2022,07:10:45,0.000,0.0,0.0,0.0
21/01/2022,07:11:44,0.001,0.0,0.0,0.0
21/01/2022,07:12:44,0.002,0.0,0.0,0.0
21/01/2022,07:13:52,0.001,0.0,0.0,0.0
21/01/2022,07:14:43,0.001,0.0,0.0,0.0
21/01/2022,07:15:43,0.001,0.0,0.0,0.0
21/01/2022,07:16:44,0.001,0.0,0.0,0.0
21/01/2022,07:17:43,0.002,0.0,0.0,0.0
21/01/2022,07:18:43,0.001,0.0,0.0,0.0
21/01/2022,07:19:43,0.001,0.0,0.0,0.0
21/01/2022,07:20:52,0.002,0.0,0.0,0.0
21/01/2022,07:21:44,0.000,0.0,0.0,0.0
21/01/2022,07:22:44,0.001,0.0,0.0,0.0
21/01/2022,07:23:44,0.001,0.0,0.0,0.0
21/01/2022,07:24:44,0.001,0.0,0.0,0.0
21/01/2022,07:25:43,0.001,0.0,0.0,0.0
21/01/2022,07:26:44,0.001,0.0,0.0,0.0
21/01/2022,07:27:43,0.001,0.0,0.0,0.0
21/01/2022,07:28:44,0.001,0.0,0.0,0.0
21/01/2022,07:29:43,0.000,0.0,0.0,0.0
21/01/2022,07:30:44,0.001,0.0,0.0,0.0
21/01/2022,07:31:44,0.001,0.0,0.0,0.0
21/01/2022,07:32:43,0.001,0.0,0.0,0.0
21/01/2022,07:33:45,0.001,0.0,0.0,0.0
21/01/2022,07:34:43,0.001,0.0,0.0,0.0
21/01/2022,07:35:44,0.001,0.0,0.0,0.0
21/01/2022,07:36:44,0.001,0.0,0.0,0.0
21/01/2022,07:37:43,0.001,0.0,0.0,0.0
21/01/2022,07:38:52,0.001,0.0,0.0,0.0
21/01/2022,07:39:43,0.001,0.0,0.0,0.0
21/01/2022,07:40:44,0.001,0.0,0.0,0.0
21/01/2022,07:41:44,0.001,0.0,0.0,0.0
21/01/2022,07:42:44,0.001,0.0,0.0,0.0
21/01/2022,07:43:44,0.001,0.0,0.0,0.0
21/01/2022,07:44:43,0.002,0.0,0.0,0.0
21/01/2022,07:45:44,0.001,0.0,0.0,0.0
21/01/2022,07:46:43,0.001,0.0,0.0,0.0
21/01/2022,07:47:44,0.002,0.0,0.0,0.0
21/01/2022,07:48:44,0.002,0.0,0.0,0.0
21/01/2022,07:49:51,0.002,0.0,0.0,0.0
21/01/2022,07:50:44,0.002,0.0,0.0,0.0
21/01/2022,07:51:44,0.003,0.0,0.0,0.0
21/01/2022,07:52:44,0.002,0.0,0.0,0.0
21/01/2022,07:53:44,0.003,0.0,0.0,0.0
21/01/2022,07:54:43,0.002,0.0,0.0,0.0
21/01/2022,07:55:43,0.003,0.0,0.0,0.0
21/01/2022,07:56:43,0.003,0.0,0.0,0.0
21/01/2022,07:57:43,0.003,0.0,0.0,0.0
21/01/2022,07:58:44,0.002,0.0,0.0,0.0
21/01/2022,07:59:52,0.003,0.0,0.0,0.0
21/01/2022,08:00:44,0.003,0.0,0.0,0.0
21/01/2022,08:01:43,0.003,0.0,0.0,0.0
21/01/2022,08:02:44,0.004,0.0,0.0,0.0
21/01/2022,08:03:44,0.004,0.0,0.0,0.0
21/01/2022,08:04:43,0.004,0.0,0.0,0.0
21/01/2022,08:05:44,0.004,0.0,0.0,0.0
21/01/2022,08:06:43,0.003,0.0,0.0,0.0
21/01/2022,08:07:43,0.004,0.0,0.0,0.0
21/01/2022,08:08:43,0.005,0.0,0.0,0.0
21/01/2022,08:09:45,0.005,0.0,0.0,0.0
21/01/2022,08:10:43,0.005,0.0,0.0,0.0
21/01/2022,08:11:44,0.006,0.0,0.0,0.0
21/01/2022,08:12:43,0.006,0.0,0.0,0.0
21/01/2022,08:13:44,0.006,0.0,0.0,0.0
21/01/2022,08:14:43,0.006,0.0,0.0,0.0
21/01/2022,08:15:44,0.008,0.0,0.0,0.0
21/01/2022,08:16:44,0.007,0.0,0.0,0.0
21/01/2022,08:17:44,0.007,0.0,0.0,0.0
21/01/2022,08:18:44,0.008,0.0,0.001,0.001
21/01/2022,08:19:43,0.008,0.0,0.001,0.0
21/01/2022,08:20:44,0.007,0.0,0.001,0.0
21/01/2022,08:21:44,0.008,0.0,0.001,0.0
21/01/2022,08:22:43,0.009,0.0,0.001,0.0
21/01/2022,08:23:43,0.009,0.0,0.001,0.0
21/01/2022,08:24:44,0.008,0.0,0.001,0.0
21/01/2022,08:25:44,0.009,0.0,0.001,0.0
21/01/2022,08:26:43,0.010,0.0,0.002,0.001
21/01/2022,08:27:44,0.010,0.0,0.002,0.0
21/01/2022,08:28:43,0.010,0.0,0.002,0.0
21/01/2022,08:29:43,0.010,0.0,0.002,0.0
21/01/2022,08:30:43,0.010,0.0,0.002,0.0
21/01/2022,08:31:52,0.010,0.0,0.002,0.0
21/01/2022,08:32:44,0.010,0.0,0.003,0.001
21/01/2022,08:33:43,0.011,0.0,0.003,0.0
21/01/2022,08:34:43,0.010,0.0,0.003,0.0
21/01/2022,08:35:44,0.011,0.0,0.003,0.0
21/01/2022,08:36:43,0.012,0.0,0.003,0.0
21/01/2022,08:37:43,0.011,0.0,0.004,0.001
21/01/2022,08:38:44,0.012,0.0,0.004,0.0
21/01/2022,08:39:52,0.012,0.0,0.004,0.0
21/01/2022,08:41:45,0.013,0.0,0.004,0.0
21/01/2022,08:42:52,0.012,0.0,0.005,0.001
21/01/2022,08:43:43,0.011,0.0,0.005,0.0
21/01/2022,08:44:44,0.012,0.0,0.005,0.0
21/01/2022,08:45:44,0.013,0.0,0.005,0.0
21/01/2022,08:46:43,0.012,0.0,0.005,0.0
21/01/2022,08:47:43,0.014,0.0,0.006,0.001
21/01/2022,08:48:44,0.013,0.0,0.006,0.0
21/01/2022,08:49:51,0.014,0.0,0.006,0.0
21/01/2022,08:50:43,0.014,0.0,0.006,0.0
21/01/2022,08:51:43,0.015,0.0,0.007,0.001
21/01/2022,08:52:44,0.015,0.0,0.007,0.0
21/01/2022,08:53:44,0.014,0.0,0.007,0.0
21/01/2022,08:54:43,0.015,0.0,0.007,0.0
21/01/2022,08:55:43,0.015,0.0,0.008,0.001
21/01/2022,08:56:43,0.015,0.0,0.008,0.0
21/01/2022,08:57:44,0.016,0.0,0.008,0.0
21/01/2022,08:58:43,0.016,0.0,0.008,0.0
21/01/2022,08:59:44,0.017,0.0,0.009,0.001
21/01/2022,09:00:52,0.018,0.0,0.009,-0.0
21/01/2022,09:01:44,0.019,0.0,0.009,-0.0
21/01/2022,09:02:44,0.020,0.0,0.009,-0.0
21/01/2022,09:03:51,0.020,0.0,0.01,0.001
21/01/2022,09:04:44,0.021,0.0,0.01,0.0
21/01/2022,09:05:44,0.021,0.0,0.011,0.001
21/01/2022,09:06:43,0.022,0.0,0.011,-0.0
21/01/2022,09:07:30,0.021,0.0,0.011,-0.0
21/01/2022,09:08:44,0.022,0.0,0.012,0.001
21/01/2022,09:09:44,0.022,0.0,0.012,0.0
21/01/2022,09:10:43,0.023,0.0,0.012,0.0
21/01/2022,09:11:52,0.023,0.0,0.013,0.001
21/01/2022,09:12:43,0.024,0.0,0.013,-0.0
21/01/2022,09:13:43,0.023,0.0,0.013,-0.0
21/01/2022,09:14:44,0.023,0.0,0.014,0.001
21/01/2022,09:15:43,0.024,0.0,0.014,0.0
21/01/2022,09:16:43,0.026,0.0,0.015,0.001
21/01/2022,09:17:44,0.025,0.0,0.015,0.0
21/01/2022,09:18:43,0.026,0.0,0.016,0.001
21/01/2022,09:19:44,0.025,0.0,0.016,0.0
21/01/2022,09:20:44,0.025,0.0,0.016,0.0
21/01/2022,09:21:52,0.026,0.0,0.017,0.001
21/01/2022,09:22:43,0.027,0.0,0.017,0.0
21/01/2022,09:23:44,0.028,0.0,0.018,0.001
21/01/2022,09:24:44,0.029,0.0,0.018,-0.0
21/01/2022,09:25:44,0.030,0.0,0.019,0.001
21/01/2022,09:26:44,0.031,0.0,0.019,0.0
21/01/2022,09:27:44,0.031,0.0,0.02,0.001
21/01/2022,09:28:44,0.031,0.0,0.02,0.0
21/01/2022,09:29:53,0.031,0.0,0.021,0.001
21/01/2022,09:30:42,0.032,0.0,0.021,0.0
21/01/2022,09:31:43,0.034,0.0,0.022,0.001
21/01/2022,09:32:52,0.036,0.0,0.022,-0.0
21/01/2022,09:33:44,0.038,0.0,0.023,0.001
21/01/2022,09:34:44,0.037,0.0,0.024,0.001
21/01/2022,09:35:52,0.036,0.0,0.024,0.0
21/01/2022,09:36:43,0.036,0.0,0.025,0.001
21/01/2022,09:37:44,0.036,0.0,0.025,0.0
21/01/2022,09:38:44,0.038,0.0,0.026,0.001
21/01/2022,09:39:43,0.039,0.0,0.027,0.001
21/01/2022,09:40:44,0.039,0.0,0.027,-0.0
21/01/2022,09:41:43,0.040,0.0,0.028,0.001
21/01/2022,09:42:43,0.041,0.0,0.029,0.001
21/01/2022,09:43:44,0.043,0.0,0.029,0.0
21/01/2022,09:44:44,0.045,0.0,0.03,0.001
21/01/2022,09:45:44,0.046,0.0,0.031,0.001
21/01/2022,09:46:44,0.047,0.0,0.032,0.001
21/01/2022,09:47:44,0.047,0.0,0.032,0.0
21/01/2022,09:48:43,0.048,0.0,0.033,0.001
21/01/2022,09:49:44,0.049,0.0,0.034,0.001
21/01/2022,09:50:52,0.049,0.0,0.035,0.001
21/01/2022,09:51:44,0.049,0.0,0.036,0.001
21/01/2022,09:52:44,0.051,0.0,0.036,-0.0
21/01/2022,09:53:44,0.052,0.0,0.037,0.001
21/01/2022,09:54:43,0.051,0.0,0.038,0.001
21/01/2022,09:55:44,0.049,0.0,0.039,0.001
21/01/2022,09:56:43,0.048,0.0,0.04,0.001
21/01/2022,09:57:43,0.048,0.0,0.041,0.001
21/01/2022,09:58:43,0.051,0.0,0.042,0.001
21/01/2022,09:59:44,0.052,0.0,0.042,0.0
21/01/2022,10:00:51,0.052,0.0,0.043,0.001
21/01/2022,10:01:43,0.050,0.0,0.044,0.001
21/01/2022,10:02:44,0.051,0.0,0.045,0.001
21/01/2022,10:03:43,0.052,0.0,0.046,0.001
21/01/2022,10:04:43,0.055,0.0,0.047,0.001
21/01/2022,10:05:44,0.056,0.0,0.048,0.001
21/01/2022,10:06:44,0.055,0.0,0.049,0.001
21/01/2022,10:07:43,0.054,0.0,0.049,0.0
21/01/2022,10:08:43,0.052,0.0,0.05,0.001
21/01/2022,10:09:44,0.051,0.0,0.051,0.001
21/01/2022,10:10:45,0.051,0.0,0.052,0.001
21/01/2022,10:11:44,0.052,0.0,0.053,0.001
21/01/2022,10:12:44,0.053,0.0,0.054,0.001
21/01/2022,10:13:45,0.056,0.0,0.055,0.001
21/01/2022,10:14:54,0.058,0.0,0.056,0.001
21/01/2022,10:16:53,0.059,0.0,0.058,0.002
21/01/2022,10:18:45,0.060,0.0,0.06,0.002
21/01/2022,10:19:44,0.060,0.0,0.06,0.0
21/01/2022,10:20:44,0.062,0.0,0.062,0.002
21/01/2022,10:21:46,0.062,0.0,0.063,0.001
21/01/2022,10:22:43,0.063,0.0,0.064,0.001
21/01/2022,10:23:44,0.064,0.0,0.065,0.001
21/01/2022,10:24:44,0.066,0.0,0.066,0.001
21/01/2022,10:25:44,0.067,0.0,0.067,0.001
21/01/2022,10:26:44,0.067,0.0,0.068,0.001
21/01/2022,10:27:44,0.067,0.0,0.069,0.001
21/01/2022,10:28:44,0.067,0.0,0.07,0.001
21/01/2022,10:29:44,0.069,0.0,0.071,0.001
21/01/2022,10:30:45,0.069,0.0,0.072,0.001